Phnom Penh, Cambodia

4:24 PM +07 on May 24, 2018 (GMT +0700)
Pochentong International

Weather History for VDPP - January, 2014

Change the Weather History Date:

Sunday, January 12, 2014

  Actual Average Record
Temperature  
Mean Temperature 82 °F -  
Max Temperature 89 °F 87 °F 91 °F (2000)
Min Temperature 75 °F 72 °F 66 °F (2009)
Cooling Degree Days 17    
Growing Degree Days 32 (Base 50)    
Moisture  
Dew Point 65 °F    
Average Humidity 55    
Maximum Humidity 70    
Minimum Humidity 38    
Precipitation  
Precipitation 0.00 in - - ()
Sea Level Pressure  
Sea Level Pressure 29.90 in    
Wind  
Wind Speed 8 mph ()    
Max Wind Speed 17 mph    
Max Gust Speed -    
Visibility 6.0 miles    
Events      
Averages and records for this station are not official NWS values.
T = Trace of Precipitation, MM = Missing Value Source: Averaged Metar Reports

Daily Weather History Graph

Daily Weather History Graph

Search for Another Location

Airport or City:

Astronomy

Jan. 12, 2014 Rise Set
Actual Time 6:23 AM +07 5:53 PM +07
Civil Twilight 6:01 AM +07 6:16 PM +07
Nautical Twilight 5:34 AM +07 6:42 PM +07
Astronomical Twilight 5:08 AM +07 7:08 PM +07
Moon 2:52 PM +07 (1/12) 3:00 AM +07 (1/12)
Length of Visible Light 12h 15m
Length of Day
11h 30m
Waxing Gibbous, 86% of the Moon is Illuminated
Jan 12
Waxing Gibbous
Jan 16
Full
Jan 24
Last Quarter
Jan 31
New
Feb 7
First Quarter

Hourly Weather History & Observations

Time (+07) Temp. Heat Index Dew Point Humidity Pressure Visibility Wind Dir Wind Speed Gust Speed Precip Events Conditions
12:00 AM 78.8 °F - 66.2 °F 65% 29.92 in 5.6 mi North 4.6 mph - N/A   Unknown
12:30 AM 78.8 °F - 66.2 °F 65% 29.92 in 5.6 mi North 4.6 mph - N/A   Unknown
1:00 AM 78.8 °F - 68.0 °F 69% 29.92 in 5.6 mi NNE 5.8 mph - N/A   Unknown
6:00 AM 75.2 °F - 64.4 °F 69% 29.89 in 5.6 mi NNE 5.8 mph - N/A   Unknown
6:30 AM 75.2 °F - 64.4 °F 69% 29.89 in 5.6 mi NNE 5.8 mph - N/A   Unknown
7:00 AM 75.2 °F - 64.4 °F 69% 29.92 in 5.6 mi NNE 8.1 mph - N/A   Unknown
7:30 AM 77.0 °F - 64.4 °F 65% 29.92 in 5.6 mi NNE 9.2 mph - N/A   Unknown
8:00 AM 78.8 °F - 64.4 °F 61% 29.95 in 5.6 mi NNE 11.5 mph - N/A   Unknown
8:30 AM 80.6 °F 82.3 °F 64.4 °F 58% 29.95 in 5.6 mi NNE 11.5 mph - N/A   Unknown
9:00 AM 80.6 °F 82.3 °F 64.4 °F 58% 29.95 in - NE 13.8 mph - N/A   Clear
9:30 AM 82.4 °F 83.9 °F 64.4 °F 54% 29.98 in - NE 13.8 mph - N/A   Clear
10:00 AM 82.4 °F 83.4 °F 62.6 °F 51% 29.95 in - NNE 12.7 mph - N/A   Clear
10:03 AM 84.2 °F 85.6 °F 64.4 °F 51% 29.95 in - ENE 11.5 mph - N/A   Clear
11:00 AM 84.2 °F 85.6 °F 64.4 °F 51% 29.95 in - NNE 15.0 mph - N/A   Clear
11:30 AM 86.0 °F 86.6 °F 62.6 °F 45% 29.95 in - NNE 16.1 mph - N/A   Clear
12:00 PM 86.0 °F 86.6 °F 62.6 °F 45% 29.92 in - NNE 13.8 mph - N/A   Clear
12:30 PM 86.0 °F 86.6 °F 62.6 °F 45% 29.92 in - NNE 15.0 mph - N/A   Clear
1:00 PM 87.8 °F 89.4 °F 64.4 °F 46% 29.89 in 6.2 mi NNE 12.7 mph - N/A   Partly Cloudy
1:30 PM 87.8 °F 88.5 °F 62.6 °F 43% 29.86 in 6.2 mi NNE 13.8 mph - N/A   Partly Cloudy
2:00 PM 87.8 °F 88.5 °F 62.6 °F 43% 29.86 in 6.2 mi ENE 15.0 mph - N/A   Partly Cloudy
2:30 PM 89.6 °F 89.5 °F 60.8 °F 38% 29.83 in 6.2 mi NE 17.3 mph - N/A   Scattered Clouds
3:00 PM 89.6 °F 89.5 °F 60.8 °F 38% 29.83 in 6.2 mi NE 12.7 mph - N/A   Scattered Clouds
3:30 PM 89.6 °F 89.5 °F 60.8 °F 38% 29.83 in 6.2 mi NNE 13.8 mph - N/A   Scattered Clouds
4:00 PM 89.6 °F 89.5 °F 60.8 °F 38% 29.83 in 6.2 mi North 10.4 mph - N/A   Partly Cloudy
4:30 PM 87.8 °F 88.5 °F 62.6 °F 43% 29.83 in 6.2 mi North 11.5 mph - N/A   Partly Cloudy
5:00 PM 87.8 °F 89.4 °F 64.4 °F 46% 29.83 in 6.2 mi North 9.2 mph - N/A   Partly Cloudy
5:30 PM 87.8 °F 89.4 °F 64.4 °F 46% 29.83 in 6.2 mi North 12.7 mph - N/A   Partly Cloudy
6:00 PM 86.0 °F 87.3 °F 64.4 °F 48% 29.86 in 6.2 mi North 8.1 mph - N/A   Partly Cloudy
6:30 PM 84.2 °F 86.6 °F 66.2 °F 55% 29.86 in 6.2 mi NNW 6.9 mph - N/A   Partly Cloudy
7:00 PM 84.2 °F 86.6 °F 66.2 °F 55% 29.86 in 6.2 mi North 6.9 mph - N/A   Partly Cloudy
7:30 PM 84.2 °F 86.6 °F 66.2 °F 55% 29.86 in 6.2 mi North 5.8 mph - N/A   Partly Cloudy
8:00 PM 82.4 °F 85.4 °F 68.0 °F 62% 29.89 in 6.2 mi North 5.8 mph - N/A   Partly Cloudy
8:30 PM 82.4 °F 84.6 °F 66.2 °F 58% 29.89 in 6.2 mi NNW 5.8 mph - N/A   Partly Cloudy
9:00 PM 82.4 °F 85.4 °F 68.0 °F 62% 29.89 in 6.2 mi NNW 5.8 mph - N/A   Partly Cloudy
9:30 PM 82.4 °F 85.4 °F 68.0 °F 62% 29.92 in 6.2 mi North 6.9 mph - N/A   Partly Cloudy
10:00 PM 80.6 °F 83.2 °F 68.0 °F 65% 29.92 in 6.2 mi North 8.1 mph - N/A   Partly Cloudy
10:30 PM 80.6 °F 83.2 °F 68.0 °F 65% 29.92 in 6.2 mi North 4.6 mph - N/A   Partly Cloudy
11:00 PM 80.6 °F 83.2 °F 68.0 °F 65% 29.92 in 6.2 mi NE 6.9 mph - N/A   Partly Cloudy
11:30 PM 80.6 °F 83.9 °F 69.8 °F 70% 29.92 in 6.2 mi NNE 5.8 mph - N/A   Partly Cloudy